Weather History for Spirit of St Louis, MO

Change the Weather History Date:

Friday, November 8, 2013

  Actual Average Record
Temperature  
Mean Temperature 42 °F -  
Max Temperature 59 °F 55 °F 82 °F (2005)
Min Temperature 26 °F 35 °F 26 °F (1997)
Degree Days  
Heating Degree Days 22    
Moisture  
Dew Point 28 °F    
Average Humidity 62    
Maximum Humidity 93    
Minimum Humidity 26    
Precipitation  
Precipitation 0.00 in - - ()
Sea Level Pressure  
Sea Level Pressure 30.26 in    
Wind  
Wind Speed 3 mph (South)    
Max Wind Speed 14 mph    
Max Gust Speed 21 mph    
Visibility 10 miles    
Events Fog    
Averages and records for this station are not official NWS values.
T = Trace of Precipitation, MM = Missing Value Source: NWS Daily Summary

Daily Weather History Graph

Daily Weather History Graph

Search for Another Location

Airport:

Trip Planner

Search our weather history database for the weather conditions in past years. The results will help you decide how hot, cold, wet, or windy it might be!

Date:

Astronomy

Nov. 08, 2013 Rise Set
Actual Time 6:37 AM CST 4:54 PM CST
Civil Twilight 6:09 AM CST 5:22 PM CST
Nautical Twilight 5:37 AM CST 5:54 PM CST
Astronomical Twilight 5:06 AM CST 6:25 PM CST
Moon 11:33 AM CST (11/8) 10:15 PM CST (11/8)
Length of Visible Light 11h 13m
Length of Day
10h 17m
Waxing Crescent, 33% of the Moon is Illuminated
Nov 8
Waxing Crescent
Nov 9
First Quarter
Nov 17
Full
Nov 25
Last Quarter
Dec 2
New

Hourly Weather History & Observations

Time (CST) Temp. Windchill Dew Point Humidity Pressure Visibility Wind Dir Wind Speed Gust Speed Precip Events Conditions
12:54 AM 30.9 °F - 27.0 °F 85% 30.36 in 10.0 mi Calm Calm - N/A   Clear
1:54 AM 30.0 °F - 26.1 °F 85% 30.36 in 10.0 mi Calm Calm - N/A   Clear
2:54 AM 28.0 °F - 26.1 °F 92% 30.37 in 10.0 mi Calm Calm - N/A   Clear
3:54 AM 28.0 °F - 25.0 °F 88% 30.38 in 10.0 mi Calm Calm - N/A   Clear
4:54 AM 27.0 °F - 25.0 °F 92% 30.38 in 8.0 mi Calm Calm - N/A   Clear
5:04 AM 26.6 °F - 24.8 °F 93% 30.36 in 10.0 mi Calm Calm - N/A   Scattered Clouds
5:13 AM 26.6 °F - 24.8 °F 93% 30.35 in 10.0 mi Calm Calm - N/A   Mostly Cloudy
5:26 AM 26.6 °F - 24.8 °F 93% 30.35 in 9.0 mi Calm Calm - N/A   Scattered Clouds
5:54 AM 27.0 °F - 25.0 °F 92% 30.37 in 10.0 mi Calm Calm - N/A   Partly Cloudy
6:54 AM 26.1 °F 21.9 °F 24.1 °F 92% 30.38 in 10.0 mi WSW 3.5 mph - N/A   Clear
7:54 AM 32.0 °F - 30.0 °F 92% 30.40 in 10.0 mi Calm Calm - N/A Fog Shallow Fog
8:54 AM 37.9 °F - 32.0 °F 79% 30.38 in 10.0 mi Calm Calm - N/A   Partly Cloudy
9:54 AM 48.9 °F - 32.0 °F 52% 30.36 in 10.0 mi South 6.9 mph - N/A   Scattered Clouds
10:54 AM 52.0 °F - 32.0 °F 47% 30.33 in 10.0 mi Variable 5.8 mph - N/A   Partly Cloudy
11:54 AM 55.0 °F - 27.0 °F 34% 30.29 in 10.0 mi South 10.4 mph - N/A   Clear
12:54 PM 57.0 °F - 26.1 °F 30% 30.25 in 10.0 mi South 9.2 mph - N/A   Scattered Clouds
1:54 PM 59.0 °F - 24.1 °F 26% 30.20 in 10.0 mi SSE 6.9 mph - N/A   Scattered Clouds
2:54 PM 57.9 °F - 25.0 °F 28% 30.17 in 10.0 mi SSE 12.7 mph 18.4 mph N/A   Mostly Cloudy
3:54 PM 57.0 °F - 26.1 °F 30% 30.14 in 10.0 mi SSE 8.1 mph - N/A   Scattered Clouds
4:54 PM 55.0 °F - 27.0 °F 34% 30.12 in 10.0 mi Variable 4.6 mph - N/A   Clear
5:54 PM 55.0 °F - 28.0 °F 35% 30.09 in 10.0 mi SSE 10.4 mph 20.7 mph N/A   Clear
6:54 PM 54.0 °F - 30.0 °F 40% 30.11 in 10.0 mi SSE 9.2 mph 17.3 mph N/A   Clear
7:54 PM 53.1 °F - 30.9 °F 43% 30.10 in 10.0 mi South 13.8 mph 19.6 mph N/A   Clear
8:54 PM 52.0 °F - 32.0 °F 47% 30.11 in 10.0 mi South 8.1 mph 17.3 mph N/A   Clear
9:54 PM 51.1 °F - 33.1 °F 50% 30.09 in 10.0 mi South 10.4 mph 20.7 mph N/A   Clear
10:54 PM 51.1 °F - 33.1 °F 50% 30.10 in 10.0 mi South 9.2 mph - N/A   Clear
11:54 PM 50.0 °F - 33.1 °F 52% 30.08 in 10.0 mi Variable 4.6 mph - N/A   Clear